Вернуться в каталог

TITAN 3C TRANSTAGE DEB

АктивенHEO
NORAD 13906·DEBRIS·🇺🇸 United States

Запущен Dec 21, 1965 с Cape Canaveral Space Force Station

Loading…

Ближайшие Пролёты (ближайшие 24 часа)

TLE

СвежийSource: Space-Track

Эпоха: Sep 14, 2026, 02:30 UTC

1 13906U 65108U   26257.10439317  .00000093  00000-0  15134-2 0  9997
2 13906  26.2077 223.3674 6741088 296.9724 188.0290  2.78188720345851

Отслеживайте TITAN 3C TRANSTAGE DEB в реальном времени с AllMySat

Download on the App Store